Tracking 33068 objects as of 24-Jan-2026
HD Live streaming from Space Station
objects crossing your sky now

ARIANE 3 DEB (SYLDA)

Track ARIANE 3 DEB (SYLDA) now!


NORAD ID: 15166
Int'l Code: 1984-081D
Perigee: 639.0 km
Apogee: 33,382.5 km
Inclination: 7.0 °
Period: 593.0 minutes
Semi major axis: 23381 km
RCS: 2.1732 m2 (large)
Launch date: August 4, 1984
Source: France (FR)
Launch site: FRENCH GUIANA (FRGUI)

Note: This is SATELLITE DEBRIS
Your satellite tracking list
Your tracking list is empty




NASA's NSSDC Master Catalog

Two Line Element Set (TLE):
1 15166U 84081D   26024.26593939 -.00000309  00000-0 -41348-2 0  9996
2 15166   6.9792 306.3153 7001952  44.8907 353.7013  2.42821611272685
Source of the keplerian elements: AFSPC